Location: Napoli
(40.8639°N, 14.2562°E)
Time: 15:20:59
(UTC+02:00)

ISS - Pass Details

Date: 25 May 2025
Orbit: 415 x 417 km, 51.6° (Epoch: 15 June)

Event Time Altitude Azimuth Distance (km) Brightness Sun altitude
Rises 22:18:58 0° 300° (WNW) 2,358 1.4 -17.6°
Reaches altitude 10° 22:21:09 10° 293° (WNW) 1,491 0.0 -17.9°
Maximum altitude 22:24:17 38° 223° (SW) 643 -3.0 -18.3°
Enters shadow 22:24:33 38° 210° (SSW) 653 -3.0 -18.3°
